| time (UTC) | temp C | wind direction | speed KPH | gust KPH | rain 1hr cm | rain 24hr cm | rain mn cm | humidity % | barometer mb |
| 20260506124144 | 16 | 292 | 12.9 | 12.9 | 0.00 | 0.10 | 0.00 | 68 | 1013.0 |
| 20260506123644 | 16 | 292 | 12.9 | 12.9 | 0.00 | 0.10 | 0.00 | 68 | 1013.0 |
| 20260506123144 | 16 | 292 | 12.9 | 12.9 | 0.00 | 0.10 | 0.00 | 68 | 1013.0 |
| 20260506122646 | 16 | 292 | 12.9 | 12.9 | 0.00 | 0.10 | 0.00 | 68 | 1013.0 |
| 20260506122146 | 16 | 292 | 12.9 | 12.9 | 0.00 | 0.10 | 0.00 | 68 | 1013.0 |
| 20260506121645 | 16 | 292 | 12.9 | 12.9 | 0.00 | 0.10 | 0.00 | 68 | 1013.0 |
| 20260506121145 | 16 | 292 | 12.9 | 12.9 | 0.00 | 0.10 | 0.00 | 68 | 1013.0 |
| 20260506120645 | 16 | 292 | 12.9 | 12.9 | 0.00 | 0.10 | 0.00 | 68 | 1013.0 |
| 20260506120145 | 16 | 248 | 9.7 | 16.1 | 0.00 | 0.10 | 0.00 | 69 | 1013.0 |
| 20260506115645 | 16 | 248 | 9.7 | 16.1 | 0.00 | 0.10 | 0.00 | 69 | 1013.0 |
| 20260506115145 | 16 | 248 | 9.7 | 16.1 | 0.00 | 0.10 | 0.00 | 69 | 1013.0 |
| 20260506114645 | 16 | 248 | 9.7 | 16.1 | 0.00 | 0.10 | 0.00 | 69 | 1013.0 |
| 20260506114145 | 16 | 248 | 9.7 | 16.1 | 0.00 | 0.10 | 0.00 | 69 | 1013.0 |
| 20260506113645 | 16 | 248 | 9.7 | 16.1 | 0.00 | 0.10 | 0.00 | 68 | 1013.0 |
| 20260506113144 | 16 | 248 | 9.7 | 16.1 | 0.00 | 0.10 | 0.00 | 68 | 1013.0 |
| 20260506112644 | 16 | 248 | 9.7 | 16.1 | 0.00 | 0.10 | 0.00 | 68 | 1013.0 |
| 20260506112144 | 16 | 248 | 9.7 | 16.1 | 0.00 | 0.10 | 0.00 | 68 | 1013.0 |
| 20260506111644 | 16 | 248 | 9.7 | 16.1 | 0.00 | 0.10 | 0.00 | 68 | 1013.0 |
| 20260506111144 | 16 | 248 | 9.7 | 16.1 | 0.00 | 0.10 | 0.00 | 69 | 1013.0 |
| 20260506110646 | 16 | 248 | 9.7 | 16.1 | 0.00 | 0.10 | 0.00 | 68 | 1013.0 |
| 20260506110146 | 16 | 248 | 9.7 | 16.1 | 0.00 | 0.10 | 0.00 | 68 | 1013.0 |
| 20260506105645 | 16 | 248 | 9.7 | 16.1 | 0.00 | 0.10 | 0.00 | 69 | 1013.0 |
| 20260506105145 | 16 | 248 | 9.7 | 19.3 | 0.00 | 0.10 | 0.00 | 69 | 1013.0 |
| 20260506104645 | 16 | 292 | 11.3 | 4.8 | 0.00 | 0.10 | 0.00 | 70 | 1013.0 |
| 20260506104144 | 16 | 248 | 8.0 | 11.3 | 0.00 | 0.10 | 0.00 | 70 | 1013.0 |
| 20260506103644 | 16 | 270 | 9.7 | 12.9 | 0.00 | 0.10 | 0.00 | 70 | 1013.0 |
| 20260506103144 | 16 | 248 | 11.3 | 3.2 | 0.00 | 0.10 | 0.00 | 69 | 1013.0 |
| 20260506102644 | 16 | 248 | 11.3 | 4.8 | 0.00 | 0.10 | 0.00 | 69 | 1013.0 |
| 20260506102144 | 16 | 248 | 8.0 | 8.0 | 0.00 | 0.10 | 0.00 | 69 | 1013.0 |
| 20260506101646 | 16 | 244 | 8.0 | 11.3 | 0.00 | 0.10 | 0.00 | 69 | 1013.0 |
| 20260506101145 | 16 | 205 | 12.9 | 9.7 | 0.00 | 0.10 | 0.00 | 70 | 1013.0 |
| 20260506100645 | 15 | 270 | 4.8 | 8.0 | 0.00 | 0.10 | 0.00 | 70 | 1013.0 |
| 20260506100145 | 15 | 270 | 4.8 | 8.0 | 0.00 | 0.10 | 0.00 | 70 | 1013.0 |
| 20260506095645 | 15 | 248 | 9.7 | 11.3 | 0.00 | 0.10 | 0.00 | 70 | 1013.0 |
| 20260506095145 | 15 | 248 | 9.7 | 11.3 | 0.00 | 0.10 | 0.00 | 70 | 1013.0 |
| 20260506094645 | 15 | 248 | 9.7 | 11.3 | 0.00 | 0.10 | 0.00 | 70 | 1013.0 |
| 20260506094145 | 15 | 270 | 8.0 | 8.0 | 0.00 | 0.10 | 0.00 | 70 | 1013.0 |
| 20260506093645 | 15 | 270 | 11.3 | 8.0 | 0.00 | 0.10 | 0.00 | 70 | 1013.0 |
| 20260506093145 | 15 | 254 | 8.0 | 9.7 | 0.00 | 0.10 | 0.00 | 70 | 1013.0 |
| 20260506092645 | 15 | 270 | 4.8 | 8.0 | 0.00 | 0.10 | 0.00 | 70 | 1013.0 |
| 20260506092145 | 15 | 248 | 8.0 | 4.8 | 0.00 | 0.10 | 0.00 | 70 | 1013.0 |
| 20260506091644 | 15 | 278 | 8.0 | 8.0 | 0.00 | 0.10 | 0.00 | 71 | 1013.0 |
| 20260506091144 | 14 | 262 | 8.0 | 9.7 | 0.00 | 0.10 | 0.00 | 71 | 1013.0 |
| 20260506090645 | 14 | 233 | 4.8 | 3.2 | 0.00 | 0.10 | 0.00 | 71 | 1013.0 |
| 20260506090145 | 14 | 292 | 8.0 | 8.0 | 0.00 | 0.10 | 0.00 | 71 | 1013.0 |
| 20260506085645 | 14 | 248 | 9.7 | 9.7 | 0.00 | 0.10 | 0.00 | 71 | 1013.0 |
| 20260506085145 | 13 | 292 | 9.7 | 8.0 | 0.00 | 0.10 | 0.00 | 71 | 1013.0 |
| 20260506084645 | 13 | 248 | 9.7 | 9.7 | 0.00 | 0.10 | 0.00 | 71 | 1013.0 |
| 20260506084145 | 13 | 248 | 9.7 | 9.7 | 0.00 | 0.10 | 0.00 | 71 | 1015.0 |
| 20260506083645 | 13 | 248 | 9.7 | 9.7 | 0.00 | 0.10 | 0.00 | 71 | 1015.0 |
| 20260506083145 | 13 | 248 | 9.7 | 9.7 | 0.00 | 0.10 | 0.00 | 71 | 1015.0 |
| 20260506082644 | 12 | 248 | 9.7 | 9.7 | 0.00 | 0.10 | 0.00 | 70 | 1015.0 |
| 20260506082144 | 12 | 248 | 9.7 | 9.7 | 0.00 | 0.10 | 0.00 | 71 | 1015.0 |
| 20260506081644 | 12 | 248 | 9.7 | 9.7 | 0.00 | 0.10 | 0.00 | 71 | 1015.0 |
| 20260506081144 | 12 | 248 | 9.7 | 9.7 | 0.00 | 0.10 | 0.00 | 71 | 1015.0 |
| 20260506080644 | 12 | 248 | 9.7 | 9.7 | 0.00 | 0.10 | 0.00 | 71 | 1015.0 |
| 20260506080144 | 12 | 248 | 9.7 | 9.7 | 0.00 | 0.10 | 0.00 | 71 | 1015.0 |
| 20260506073145 | 11 | 248 | 9.7 | 9.7 | 0.00 | 0.10 | 0.00 | 71 | 1016.0 |
| 20260506072645 | 11 | 248 | 9.7 | 9.7 | 0.00 | 0.10 | 0.00 | 71 | 1016.0 |
| 20260506072145 | 11 | 248 | 9.7 | 9.7 | 0.00 | 0.10 | 0.00 | 71 | 1016.0 |
| 20260506071645 | 11 | 248 | 9.7 | 9.7 | 0.00 | 0.10 | 0.00 | 71 | 1016.0 |
| 20260506071145 | 11 | 248 | 9.7 | 9.7 | 0.00 | 0.10 | 0.00 | 71 | 1016.0 |
| 20260506070644 | 10 | 248 | 9.7 | 9.7 | 0.00 | 0.10 | 0.00 | 71 | 1016.0 |
| 20260506070144 | 10 | 248 | 9.7 | 9.7 | 0.00 | 0.10 | 0.00 | 71 | 1016.0 |
| 20260506062145 | 10 | 248 | 9.7 | 9.7 | 0.00 | 0.10 | 0.00 | 71 | 1017.0 |
| 20260506061645 | 10 | 248 | 9.7 | 9.7 | 0.00 | 0.10 | 0.00 | 71 | 1017.0 |
| 20260506061145 | 10 | 248 | 9.7 | 9.7 | 0.00 | 0.10 | 0.00 | 71 | 1017.0 |
| 20260506060645 | 9 | 248 | 9.7 | 9.7 | 0.00 | 0.10 | 0.00 | 71 | 1017.0 |
| 20260506060145 | 9 | 248 | 9.7 | 9.7 | 0.00 | 0.10 | 0.00 | 71 | 1017.0 |
| 20260506051144 | 8 | 248 | 9.7 | 9.7 | 0.00 | 0.10 | 0.00 | 70 | 1017.0 |
| 20260506050644 | 8 | 248 | 9.7 | 9.7 | 0.00 | 0.10 | 0.00 | 70 | 1017.0 |
| 20260506050144 | 8 | 248 | 9.7 | 9.7 | 0.00 | 0.10 | 0.00 | 70 | 1017.0 |
| 20260506044644 | 8 | 248 | 9.7 | 9.7 | 0.00 | 0.10 | 0.00 | 70 | 1017.0 |
| 20260506044146 | 8 | 248 | 9.7 | 9.7 | 0.00 | 0.10 | 0.00 | 70 | 1017.0 |
| 20260506043645 | 8 | 248 | 9.7 | 9.7 | 0.00 | 0.10 | 0.00 | 70 | 1017.0 |
| 20260506043145 | 9 | 248 | 9.7 | 9.7 | 0.00 | 0.10 | 0.00 | 70 | 1017.0 |
| 20260506042645 | 9 | 248 | 9.7 | 9.7 | 0.00 | 0.10 | 0.00 | 70 | 1017.0 |
| 20260506042145 | 9 | 248 | 9.7 | 9.7 | 0.00 | 0.10 | 0.00 | 70 | 1017.0 |
| 20260506041645 | 9 | 248 | 9.7 | 9.7 | 0.00 | 0.10 | 0.00 | 70 | 1017.0 |
| 20260506041145 | 9 | 248 | 9.7 | 9.7 | 0.00 | 0.10 | 0.00 | 70 | 1017.0 |
| 20260506040645 | 9 | 248 | 9.7 | 9.7 | 0.00 | 0.10 | 0.00 | 70 | 1017.0 |
| 20260506040145 | 9 | 248 | 9.7 | 9.7 | 0.00 | 0.10 | 0.00 | 70 | 1017.0 |
| 20260506035645 | 9 | 248 | 9.7 | 9.7 | 0.00 | 0.10 | 0.00 | 70 | 1017.0 |
| 20260506035144 | 9 | 248 | 9.7 | 9.7 | 0.00 | 0.10 | 0.00 | 70 | 1017.0 |
| 20260506034644 | 9 | 248 | 9.7 | 9.7 | 0.00 | 0.10 | 0.00 | 70 | 1017.0 |
| 20260506034144 | 9 | 248 | 9.7 | 9.7 | 0.00 | 0.10 | 0.00 | 70 | 1017.0 |
| 20260506033644 | 9 | 248 | 9.7 | 9.7 | 0.00 | 0.10 | 0.00 | 70 | 1017.0 |
| 20260506033144 | 9 | 248 | 9.7 | 9.7 | 0.00 | 0.10 | 0.00 | 70 | 1017.0 |
| 20260506032644 | 9 | 248 | 9.7 | 9.7 | 0.00 | 0.10 | 0.00 | 70 | 1016.0 |
| 20260506032146 | 9 | 248 | 9.7 | 9.7 | 0.00 | 0.10 | 0.00 | 70 | 1016.0 |
| 20260506031646 | 9 | 248 | 9.7 | 9.7 | 0.00 | 0.10 | 0.00 | 70 | 1016.0 |
| 20260506031145 | 9 | 248 | 9.7 | 9.7 | 0.00 | 0.10 | 0.00 | 70 | 1017.0 |
| 20260506030645 | 9 | 248 | 9.7 | 9.7 | 0.00 | 0.10 | 0.00 | 70 | 1017.0 |
| 20260506030145 | 9 | 248 | 9.7 | 9.7 | 0.00 | 0.10 | 0.00 | 70 | 1017.0 |
| 20260506025645 | 9 | 248 | 9.7 | 9.7 | 0.00 | 0.10 | 0.00 | 70 | 1017.0 |
| 20260506025145 | 9 | 248 | 9.7 | 9.7 | 0.00 | 0.10 | 0.00 | 70 | 1017.0 |
| 20260506024645 | 9 | 248 | 9.7 | 9.7 | 0.00 | 0.10 | 0.00 | 70 | 1017.0 |
| 20260506024145 | 9 | 248 | 9.7 | 9.7 | 0.00 | 0.10 | 0.00 | 70 | 1016.0 |
| 20260506023644 | 9 | 248 | 9.7 | 9.7 | 0.00 | 0.10 | 0.00 | 70 | 1016.0 |
| 20260506023144 | 9 | 248 | 9.7 | 9.7 | 0.00 | 0.10 | 0.00 | 70 | 1016.0 |
| 20260506022644 | 9 | 248 | 9.7 | 9.7 | 0.00 | 0.10 | 0.00 | 70 | 1017.0 |
| 20260506022144 | 10 | 248 | 9.7 | 9.7 | 0.00 | 0.10 | 0.00 | 70 | 1017.0 |
| 20260506021646 | 10 | 248 | 9.7 | 9.7 | 0.00 | 0.10 | 0.00 | 70 | 1017.0 |
| 20260506021146 | 10 | 248 | 9.7 | 9.7 | 0.00 | 0.10 | 0.00 | 70 | 1016.0 |
| 20260506020645 | 10 | 248 | 9.7 | 9.7 | 0.00 | 0.10 | 0.00 | 70 | 1016.0 |
| 20260506020145 | 10 | 248 | 9.7 | 9.7 | 0.00 | 0.10 | 0.00 | 70 | 1016.0 |
| 20260506015645 | 10 | 248 | 9.7 | 9.7 | 0.00 | 0.10 | 0.00 | 70 | 1016.0 |
| 20260506015145 | 10 | 248 | 9.7 | 9.7 | 0.00 | 0.10 | 0.00 | 70 | 1016.0 |
| 20260506014645 | 9 | 248 | 9.7 | 9.7 | 0.00 | 0.10 | 0.00 | 70 | 1016.0 |
| 20260506014144 | 9 | 248 | 9.7 | 9.7 | 0.00 | 0.10 | 0.00 | 70 | 1017.0 |
| 20260506013644 | 9 | 248 | 9.7 | 9.7 | 0.00 | 0.10 | 0.00 | 70 | 1017.0 |
| 20260506013144 | 9 | 248 | 9.7 | 9.7 | 0.00 | 0.10 | 0.00 | 70 | 1017.0 |
| 20260506012644 | 9 | 248 | 9.7 | 9.7 | 0.00 | 0.10 | 0.00 | 70 | 1017.0 |
| 20260506012144 | 9 | 248 | 9.7 | 9.7 | 0.00 | 0.10 | 0.00 | 70 | 1017.0 |
| 20260506011646 | 9 | 248 | 9.7 | 9.7 | 0.00 | 0.10 | 0.00 | 70 | 1017.0 |
| 20260506011146 | 9 | 248 | 9.7 | 9.7 | 0.00 | 0.10 | 0.00 | 70 | 1017.0 |
| 20260506010645 | 9 | 248 | 9.7 | 9.7 | 0.00 | 0.10 | 0.00 | 70 | 1017.0 |
| 20260506010145 | 9 | 248 | 9.7 | 9.7 | 0.00 | 0.10 | 0.00 | 69 | 1017.0 |
| 20260506005645 | 9 | 248 | 9.7 | 9.7 | 0.00 | 0.10 | 0.00 | 69 | 1017.0 |
| 20260506005145 | 9 | 248 | 9.7 | 9.7 | 0.00 | 0.10 | 0.00 | 70 | 1017.0 |
| 20260506004645 | 9 | 248 | 9.7 | 9.7 | 0.00 | 0.10 | 0.00 | 70 | 1017.0 |
| 20260506004144 | 9 | 248 | 9.7 | 9.7 | 0.00 | 0.10 | 0.00 | 70 | 1017.0 |
| 20260506003644 | 9 | 248 | 9.7 | 9.7 | 0.00 | 0.10 | 0.00 | 70 | 1017.0 |
| 20260506003144 | 9 | 248 | 9.7 | 9.7 | 0.00 | 0.10 | 0.00 | 70 | 1017.0 |
| 20260506002644 | 10 | 248 | 9.7 | 9.7 | 0.00 | 0.10 | 0.00 | 70 | 1017.0 |
| 20260506002144 | 10 | 248 | 9.7 | 9.7 | 0.00 | 0.10 | 0.00 | 70 | 1017.0 |
| 20260506001646 | 10 | 248 | 9.7 | 9.7 | 0.00 | 0.10 | 0.00 | 70 | 1017.0 |
| 20260506001145 | 10 | 248 | 9.7 | 9.7 | 0.00 | 0.10 | 0.00 | 70 | 1017.0 |
| 20260506000645 | 10 | 248 | 9.7 | 9.7 | 0.00 | 0.10 | 0.00 | 70 | 1017.0 |
| 20260506000145 | 10 | 248 | 9.7 | 9.7 | 0.00 | 0.10 | 0.00 | 70 | 1017.0 |
| 20260505235645 | 10 | 248 | 9.7 | 9.7 | 0.00 | 0.10 | 0.00 | 70 | 1017.0 |
| 20260505235145 | 10 | 248 | 9.7 | 9.7 | 0.00 | 0.10 | 0.00 | 70 | 1017.0 |
| 20260505234645 | 10 | 248 | 9.7 | 9.7 | 0.00 | 0.10 | 0.00 | 70 | 1017.0 |
| 20260505234145 | 10 | 248 | 9.7 | 9.7 | 0.00 | 0.10 | 0.00 | 70 | 1016.0 |
| 20260505233645 | 10 | 248 | 9.7 | 9.7 | 0.00 | 0.10 | 0.00 | 69 | 1016.0 |
| 20260505233144 | 10 | 248 | 9.7 | 9.7 | 0.00 | 0.10 | 0.00 | 69 | 1016.0 |
| 20260505232644 | 10 | 248 | 9.7 | 9.7 | 0.00 | 0.10 | 0.00 | 69 | 1017.0 |
| 20260505232144 | 10 | 248 | 9.7 | 9.7 | 0.00 | 0.10 | 0.00 | 69 | 1017.0 |
| 20260505231644 | 10 | 248 | 9.7 | 9.7 | 0.00 | 0.10 | 0.00 | 69 | 1017.0 |
| 20260505231144 | 10 | 248 | 9.7 | 9.7 | 0.00 | 0.10 | 0.00 | 69 | 1017.0 |
| 20260505230644 | 10 | 248 | 9.7 | 9.7 | 0.00 | 0.10 | 0.00 | 69 | 1017.0 |
| 20260505230146 | 10 | 248 | 9.7 | 9.7 | 0.00 | 0.10 | 0.00 | 69 | 1017.0 |
| 20260505225645 | 10 | 248 | 9.7 | 9.7 | 0.00 | 0.10 | 0.00 | 69 | 1017.0 |
| 20260505225145 | 10 | 248 | 9.7 | 9.7 | 0.00 | 0.10 | 0.00 | 69 | 1017.0 |
| 20260505224645 | 10 | 248 | 9.7 | 9.7 | 0.00 | 0.10 | 0.00 | 69 | 1017.0 |
| 20260505224145 | 10 | 248 | 9.7 | 9.7 | 0.00 | 0.10 | 0.00 | 69 | 1017.0 |
| 20260505223645 | 10 | 248 | 9.7 | 9.7 | 0.00 | 0.10 | 0.00 | 69 | 1017.0 |
| 20260505223148 | 10 | 248 | 9.7 | 9.7 | 0.00 | 0.10 | 0.00 | 69 | 1017.0 |
| 20260505222645 | 10 | 248 | 9.7 | 9.7 | 0.00 | 0.10 | 0.00 | 69 | 1016.0 |
| 20260505222145 | 10 | 248 | 9.7 | 9.7 | 0.00 | 0.10 | 0.00 | 69 | 1016.0 |
| 20260505221645 | 10 | 248 | 9.7 | 9.7 | 0.00 | 0.10 | 0.00 | 69 | 1016.0 |
| 20260505221144 | 10 | 248 | 9.7 | 9.7 | 0.00 | 0.10 | 0.00 | 69 | 1017.0 |
| 20260505220644 | 10 | 248 | 9.7 | 9.7 | 0.00 | 0.10 | 0.00 | 69 | 1017.0 |
| 20260505220144 | 10 | 248 | 9.7 | 9.7 | 0.00 | 0.10 | 0.00 | 69 | 1017.0 |
| 20260505215644 | 10 | 248 | 9.7 | 9.7 | 0.00 | 0.10 | 0.10 | 69 | 1017.0 |
| 20260505215144 | 10 | 248 | 9.7 | 9.7 | 0.00 | 0.10 | 0.10 | 69 | 1017.0 |
| 20260505214646 | 10 | 248 | 9.7 | 9.7 | 0.00 | 0.10 | 0.10 | 69 | 1017.0 |
| 20260505214146 | 10 | 248 | 9.7 | 9.7 | 0.00 | 0.10 | 0.10 | 69 | 1017.0 |
| 20260505213645 | 11 | 248 | 9.7 | 9.7 | 0.00 | 0.10 | 0.10 | 69 | 1017.0 |
| 20260505213145 | 11 | 248 | 9.7 | 9.7 | 0.00 | 0.10 | 0.10 | 69 | 1017.0 |
| 20260505212645 | 11 | 248 | 9.7 | 9.7 | 0.00 | 0.10 | 0.10 | 68 | 1017.0 |
| 20260505212145 | 11 | 248 | 9.7 | 9.7 | 0.00 | 0.10 | 0.10 | 69 | 1017.0 |
| 20260505211645 | 11 | 248 | 9.7 | 9.7 | 0.00 | 0.10 | 0.10 | 69 | 1017.0 |
| 20260505211145 | 11 | 248 | 9.7 | 9.7 | 0.00 | 0.10 | 0.10 | 69 | 1017.0 |
| 20260505210645 | 11 | 248 | 9.7 | 9.7 | 0.00 | 0.10 | 0.10 | 69 | 1017.0 |
| 20260505210145 | 11 | 248 | 9.7 | 9.7 | 0.00 | 0.10 | 0.10 | 69 | 1017.0 |
| 20260505205645 | 11 | 248 | 9.7 | 9.7 | 0.00 | 0.10 | 0.10 | 69 | 1017.0 |
| 20260505205145 | 11 | 248 | 9.7 | 9.7 | 0.00 | 0.10 | 0.10 | 69 | 1017.0 |
| 20260505204645 | 11 | 248 | 9.7 | 9.7 | 0.00 | 0.10 | 0.10 | 69 | 1017.0 |
| 20260505204144 | 11 | 248 | 9.7 | 9.7 | 0.00 | 0.10 | 0.10 | 69 | 1017.0 |
| 20260505203644 | 11 | 248 | 9.7 | 9.7 | 0.00 | 0.10 | 0.10 | 69 | 1017.0 |
| 20260505203144 | 11 | 248 | 9.7 | 9.7 | 0.00 | 0.10 | 0.10 | 69 | 1017.0 |
| 20260505202644 | 11 | 248 | 9.7 | 9.7 | 0.00 | 0.10 | 0.10 | 69 | 1017.0 |
| 20260505202146 | 11 | 248 | 9.7 | 9.7 | 0.00 | 0.10 | 0.10 | 69 | 1017.0 |
| 20260505201646 | 11 | 248 | 9.7 | 9.7 | 0.00 | 0.10 | 0.10 | 69 | 1017.0 |
| 20260505201146 | 11 | 248 | 9.7 | 9.7 | 0.00 | 0.10 | 0.10 | 69 | 1016.0 |
| 20260505200646 | 11 | 248 | 9.7 | 9.7 | 0.00 | 0.10 | 0.10 | 69 | 1016.0 |
| 20260505200145 | 12 | 248 | 9.7 | 9.7 | 0.00 | 0.10 | 0.10 | 68 | 1016.0 |
| 20260505195645 | 12 | 248 | 9.7 | 9.7 | 0.00 | 0.10 | 0.10 | 68 | 1016.0 |
| 20260505195145 | 12 | 248 | 9.7 | 9.7 | 0.00 | 0.10 | 0.10 | 68 | 1016.0 |
| 20260505194645 | 12 | 248 | 9.7 | 9.7 | 0.00 | 0.10 | 0.10 | 68 | 1016.0 |
| 20260505194145 | 12 | 248 | 9.7 | 9.7 | 0.00 | 0.10 | 0.10 | 68 | 1016.0 |
| 20260505193645 | 12 | 248 | 9.7 | 9.7 | 0.00 | 0.10 | 0.10 | 68 | 1016.0 |
| 20260505193145 | 12 | 248 | 9.7 | 9.7 | 0.00 | 0.10 | 0.10 | 68 | 1016.0 |
| 20260505192645 | 12 | 248 | 9.7 | 9.7 | 0.00 | 0.10 | 0.10 | 68 | 1016.0 |
| 20260505192145 | 12 | 248 | 9.7 | 9.7 | 0.00 | 0.10 | 0.10 | 68 | 1016.0 |
| 20260505191644 | 12 | 248 | 9.7 | 9.7 | 0.00 | 0.10 | 0.10 | 68 | 1016.0 |
| 20260505191144 | 12 | 248 | 9.7 | 9.7 | 0.00 | 0.10 | 0.10 | 68 | 1015.0 |
| 20260505190644 | 13 | 248 | 9.7 | 9.7 | 0.00 | 0.10 | 0.10 | 68 | 1015.0 |
| 20260505190144 | 13 | 248 | 9.7 | 9.7 | 0.00 | 0.10 | 0.10 | 68 | 1015.0 |
| 20260505185646 | 13 | 248 | 9.7 | 9.7 | 0.00 | 0.10 | 0.10 | 68 | 1014.0 |
| 20260505185146 | 13 | 248 | 9.7 | 9.7 | 0.00 | 0.10 | 0.10 | 68 | 1014.0 |
| 20260505184645 | 13 | 248 | 9.7 | 9.7 | 0.00 | 0.10 | 0.10 | 68 | 1014.0 |
| 20260505184145 | 13 | 248 | 9.7 | 9.7 | 0.00 | 0.10 | 0.10 | 68 | 1015.0 |
| 20260505183645 | 13 | 248 | 9.7 | 9.7 | 0.00 | 0.10 | 0.10 | 68 | 1015.0 |
| 20260505183145 | 13 | 248 | 9.7 | 9.7 | 0.00 | 0.10 | 0.10 | 68 | 1015.0 |
| 20260505182645 | 13 | 248 | 9.7 | 9.7 | 0.00 | 0.10 | 0.10 | 68 | 1015.0 |
| 20260505182145 | 13 | 248 | 9.7 | 9.7 | 0.00 | 0.10 | 0.10 | 68 | 1015.0 |
| 20260505181644 | 13 | 248 | 9.7 | 9.7 | 0.00 | 0.10 | 0.10 | 68 | 1015.0 |
| 20260505181144 | 13 | 248 | 9.7 | 9.7 | 0.00 | 0.10 | 0.10 | 68 | 1016.0 |
| 20260505180644 | 14 | 248 | 9.7 | 9.7 | 0.00 | 0.10 | 0.10 | 68 | 1016.0 |
| 20260505180144 | 14 | 248 | 9.7 | 9.7 | 0.00 | 0.10 | 0.10 | 68 | 1016.0 |
| 20260505175646 | 14 | 248 | 9.7 | 9.7 | 0.00 | 0.23 | 0.10 | 68 | 1015.0 |
| 20260505175146 | 14 | 248 | 9.7 | 9.7 | 0.00 | 0.23 | 0.10 | 68 | 1015.0 |
| 20260505174646 | 14 | 248 | 9.7 | 9.7 | 0.00 | 0.23 | 0.10 | 68 | 1015.0 |
| 20260505174145 | 14 | 248 | 9.7 | 9.7 | 0.00 | 0.23 | 0.10 | 68 | 1015.0 |
| 20260505173645 | 14 | 248 | 9.7 | 9.7 | 0.00 | 0.23 | 0.10 | 69 | 1015.0 |
| 20260505173145 | 14 | 248 | 9.7 | 9.7 | 0.00 | 0.23 | 0.10 | 69 | 1015.0 |
| 20260505172645 | 14 | 248 | 9.7 | 9.7 | 0.00 | 0.33 | 0.10 | 69 | 1015.0 |
| 20260505172145 | 14 | 248 | 9.7 | 9.7 | 0.00 | 0.33 | 0.10 | 69 | 1015.0 |
| 20260505171645 | 14 | 248 | 9.7 | 9.7 | 0.00 | 0.33 | 0.10 | 69 | 1015.0 |
| 20260505171144 | 14 | 248 | 9.7 | 9.7 | 0.00 | 0.33 | 0.10 | 69 | 1015.0 |
| 20260505170644 | 14 | 248 | 9.7 | 9.7 | 0.00 | 0.43 | 0.10 | 69 | 1015.0 |
| 20260505170144 | 14 | 248 | 9.7 | 9.7 | 0.00 | 0.43 | 0.10 | 69 | 1015.0 |
| 20260505165644 | 14 | 248 | 9.7 | 9.7 | 0.00 | 0.43 | 0.10 | 69 | 1015.0 |
| 20260505165144 | 14 | 248 | 9.7 | 9.7 | 0.00 | 0.43 | 0.10 | 69 | 1015.0 |
| 20260505164644 | 14 | 248 | 9.7 | 9.7 | 0.00 | 0.53 | 0.10 | 69 | 1015.0 |
| 20260505164146 | 14 | 248 | 9.7 | 9.7 | 0.00 | 0.64 | 0.10 | 69 | 1015.0 |
| 20260505163645 | 14 | 248 | 9.7 | 9.7 | 0.00 | 0.64 | 0.10 | 69 | 1015.0 |
| 20260505163145 | 14 | 248 | 9.7 | 9.7 | 0.00 | 0.64 | 0.10 | 69 | 1015.0 |
| 20260505162645 | 14 | 248 | 9.7 | 9.7 | 0.00 | 0.64 | 0.10 | 69 | 1015.0 |
| 20260505162145 | 14 | 248 | 9.7 | 9.7 | 0.00 | 0.64 | 0.10 | 69 | 1015.0 |
| 20260505161645 | 14 | 248 | 9.7 | 9.7 | 0.00 | 0.64 | 0.10 | 69 | 1015.0 |
| 20260505161145 | 14 | 248 | 9.7 | 9.7 | 0.00 | 0.64 | 0.10 | 69 | 1015.0 |
| 20260505160645 | 14 | 248 | 9.7 | 9.7 | 0.00 | 0.64 | 0.10 | 70 | 1015.0 |
| 20260505160145 | 14 | 248 | 9.7 | 9.7 | 0.10 | 0.64 | 0.10 | 70 | 1015.0 |
| 20260505153144 | 13 | 248 | 9.7 | 9.7 | 0.10 | 0.64 | 0.10 | 69 | 1015.0 |
| 20260505152644 | 13 | 248 | 9.7 | 9.7 | 0.10 | 0.64 | 0.10 | 69 | 1014.0 |
| 20260505152144 | 13 | 248 | 9.7 | 9.7 | 0.10 | 0.64 | 0.10 | 69 | 1014.0 |
| 20260505151644 | 13 | 248 | 9.7 | 9.7 | 0.10 | 0.64 | 0.10 | 69 | 1014.0 |
| 20260505151144 | 13 | 248 | 9.7 | 9.7 | 0.10 | 0.64 | 0.10 | 69 | 1015.0 |
| 20260505150646 | 13 | 248 | 9.7 | 9.7 | 0.10 | 0.64 | 0.10 | 69 | 1015.0 |
| 20260505150146 | 13 | 248 | 9.7 | 9.7 | 0.00 | 0.53 | 0.00 | 69 | 1015.0 |
| 20260505140644 | 14 | 248 | 9.7 | 9.7 | 0.00 | 0.53 | 0.00 | 68 | 1015.0 |
| 20260505140144 | 14 | 248 | 9.7 | 9.7 | 0.00 | 0.53 | 0.00 | 68 | 1015.0 |
| 20260505130145 | 16 | 248 | 9.7 | 9.7 | 0.00 | 0.64 | 0.00 | 68 | 1012.0 |
| 20260505124645 | 17 | 284 | 4.8 | 9.7 | 0.00 | 0.76 | 0.00 | 69 | 1013.0 |